Regional Weather Roundup
Issued by NWS

Home | Current Version | Previous Version | Text Only | Print | Product List | Glossary On
Versions: 1 2 3 4 5 6 7 8 9 10 11 12 13 14 15 16 17 18 19 20 21 22 23 24 25 26 27 28 29 30 31 32 33 34 35 36 37 38 39 40 41 42 43 44 45 46 47 48 49 50
000
ASUS44 KFWD 012303
RWRTX
NORTH TEXAS HOURLY WEATHER ROUNDUP
NATIONAL WEATHER SERVICE FORT WORTH TX
600 PM CDT FRI AUG 01 2014

NOTE: "FAIR" INDICATES FEW OR NO CLOUDS BELOW 12,000 FEET WITH NO
SIGNIFICANT WEATHER AND/OR OBSTRUCTIONS TO VISIBILITY.

TXZ118-119-020000-
DALLAS/FORT WORTH METROPLEX

CITY           SKY/WX    TMP DP  RH WIND       PRES   REMARKS
DFW AIRPORT    PTSUNNY   82  65  56 N14       30.02F
DALLAS LOVE    PTSUNNY   79  66  64 NE10      30.02F
FTW MEACHAM    PTSUNNY   84  65  52 E10       30.01F
DAL-EXECUTIVE  MOSUNNY   81  65  58 NE8       30.02F
FTW-ALLIANCE   MOSUNNY   80  65  59 NE8       30.02S
FTW-NAS-JRB    PTSUNNY   85  63  47 NE12      30.06S
FTW-SPINKS     MOSUNNY   82  64  54 NE8       30.03F
ARLINGTON      MOSUNNY   81  64  56 N9        30.02S
GRAND PRAIRIE  MOSUNNY   81  64  57 N7        30.05S
ADDISON        PTSUNNY   77  66  69 NE6       30.04S
MESQUITE       CLOUDY    75  66  73 N6        30.03S
$$

TXZ091>094-102>105-117-120-121-131>134-020000-
NORTH CENTRAL TEXAS

CITY           SKY/WX    TMP DP  RH WIND       PRES   REMARKS
DENTON         CLOUDY    80  66  62 NE10      30.03S
MCKINNEY       CLOUDY    77  67  71 N8        30.03S
TERRELL        CLOUDY    77  68  73 N12       30.03S
$$

TXZ083>090-098>101-113>116-127>130-139>142-154-155-020000-
WESTERN NORTH TEXAS

CITY           SKY/WX    TMP DP  RH WIND       PRES   REMARKS
WICHITA FALLS  MOSUNNY   82  65  56 CALM      30.03F
ABILENE        SUNNY     89  56  32 N8        30.04F
ABILENE-DYESS  SUNNY     87  56  35 N8        30.03F
MINERAL WELLS  SUNNY     85  61  44 NE8       30.01F
BROWNWOOD      MOSUNNY   86  57  37 N9        30.02S
$$

TXZ143>147-156>162-174-175-020000-
CENTRAL TEXAS

CITY           SKY/WX    TMP DP  RH WIND       PRES   REMARKS
WACO           CLOUDY    82  65  56 N12       30.00S
WACO-TSTC      CLOUDY    81  66  61 N12       30.00S
WACO-MCGREGOR  CLOUDY    82  64  54 NE12      30.02S
CORSICANA      CLOUDY    78  66  66 N12       30.02S
HEARNE         CLOUDY    80  68  67 N7        29.99S
TEMPLE         CLOUDY    81  63  54 N9        29.99S
KILLEEN        PTSUNNY   82  64  54 NE8       30.01S
KILLEEN-SKYLRK CLOUDY    82  63  51 NE10      30.00F
FORT HOOD      CLOUDY    84  65  52 N7        30.01S
LAMPASAS       MOSUNNY   84  66  54 NE12      30.01S
$$

TXZ095>097-106>112-122>126-135>138-148>153-164>167-020000-
EAST TEXAS

CITY           SKY/WX    TMP DP  RH WIND       PRES   REMARKS
PARIS          CLOUDY    73  64  73 NE7       30.04S
TYLER          CLOUDY    75  67  76 N5        30.00F
LONGVIEW       CLOUDY    73  67  81 N3        29.99F
ATHENS         CLOUDY    73  66  78 N8        30.00S
NACOGDOCHES    CLOUDY    72  70  94 N8        29.99S
LUFKIN         CLOUDY    75  68  78 VRB6      29.98S
$$

SUPPLEMENTAL OBSERVATIONS (CENTRAL)

CITY           SKY/WX    TMP DP  RH WIND       PRES   REMARKS
$$

SUPPLEMENTAL OBSERVATIONS (WEST)

CITY           SKY/WX    TMP DP  RH WIND       PRES   REMARKS
$$

SUPPLEMENTAL OBSERVATIONS (EAST)

CITY           SKY/WX    TMP DP  RH WIND       PRES   REMARKS
$$

SUPPLEMENTAL OBSERVATIONS ARE A COLLECTION OF AUTOMATED INSTRUMENTS
THAT ARE MAINTAINED BY A VARIETY OF FEDERAL AND STATE AGENCIES.
CERTAIN ELEMENTS...SUCH AS HUMIDITY VALUES AND SUSTAINED WIND
SPEEDS...MAY BE APPROXIMATED.




USA.gov is the U.S. government's official web portal to all federal, state and local government web resources and services.